This demonstration page uses our WeatherBlox Daily Observations layout. Learn more.

Left ArrowRight Arrow

Hourly Observations for February 26, 2018

Temp ( °F °C ) Dew Point ( °F °C ) Humidity (%) Winds ( mph kmh ) Pressure ( in mb ) Visibility ( mi km ) Precip ( " mm )
12:54 am 00:54 Clear 25 -3.9 21 -6.1 85 85 SSE 3 6 30.12 1020 10 16 0.00 0.00
1:54 am 01:54 Clear 25 -3.9 20 -6.7 81 81 S 3 6 30.12 1020 10 16 0.00 0.00
2:54 am 02:54 Clear 25 -3.9 20 -6.7 81 81 SSE 5 7 30.12 1020 10 16 0.00 0.00
3:54 am 03:54 Clear 25 -3.9 18 -7.8 75 75 SE 3 6 30.11 1020 10 16 0.00 0.00
4:54 am 04:54 Clear 25 -3.9 18 -7.8 75 75 SSE 7 11 30.11 1020 10 16 0.00 0.00
5:54 am 05:54 Clear 23 -5 17 -8.3 78 78 SSE 6 9 30.14 1021 10 16 0.00 0.00
6:54 am 06:54 Clear 22 -5.6 16 -8.9 78 78 S 6 9 30.15 1021 10 16 0.00 0.00
7:54 am 07:54 Sunny 26 -3.3 20 -6.7 78 78 SSE 6 9 30.16 1021 10 16 0.00 0.00
8:54 am 08:54 Sunny 33 0.6 25 -3.9 72 72 SSE 3 6 30.17 1022 10 16 0.00 0.00
9:54 am 09:54 Sunny 42 5.6 27 -2.8 55 55 SSW 13 20 30.16 1022 10 16 0.00 0.00
10:54 am 10:54 Sunny 47 8.3 30 -1.1 52 52 SSW 12 19 30.16 1021 10 16 0.00 0.00
11:54 am 11:54 Sunny 51 10.6 30 -1.1 44 44 SSW 14 22 30.14 1021 10 16 0.00 0.00
12:54 pm 12:54 Sunny 55 12.8 26 -3.3 33 33 SSW 23 37 30.11 1020 10 16 0.00 0.00
1:54 pm 13:54 Sunny 56 13.3 24 -4.4 29 29 SSW 22 35 30.07 1018 10 16 0.00 0.00
2:54 pm 14:54 Sunny 58 14.4 25 -3.9 28 28 S 24 39 30.05 1018 10 16 0.00 0.00
3:54 pm 15:54 Sunny 59 15 26 -3.3 28 28 SSW 20 31 30.03 1017 10 16 0.00 0.00
4:54 pm 16:54 Sunny 57 13.9 25 -3.9 29 29 S 17 28 30.02 1017 10 16 0.00 0.00
5:54 pm 17:54 Sunny 50 10 26 -3.3 39 39 S 14 22 30.03 1017 10 16 0.00 0.00
6:54 pm 18:54 Clear 41 5 25 -3.9 53 53 S 14 22 30.04 1017 10 16 0.00 0.00
7:54 pm 19:54 Clear 40 4.4 24 -4.4 53 53 S 8 13 30.05 1018 10 16 0.00 0.00
8:54 pm 20:54 Clear 38 3.3 23 -5 55 55 SSE 10 17 30.05 1018 10 16 0.00 0.00
9:54 pm 21:54 Clear 36 2.2 22 -5.6 57 57 S 7 11 30.05 1018 10 16 0.00 0.00
10:54 pm 22:54 Clear 36 2.2 24 -4.4 62 62 S 8 13 30.04 1017 10 16 0.00 0.00
11:54 pm 23:54 Clear 36 2.2 25 -3.9 64 64 S 9 15 30.03 1017 10 16 0.00 0.00

Powered by AerisWeather